Regional Weather Roundup
Issued by NWS

Home | Current Version | Previous Version | Graphics & Text | Print | Product List | Glossary On
Versions: 1 2 3 4 5 6 7 8 9 10 11 12 13 14 15 16 17 18 19 20 21 22 23 24 25 26 27 28 29 30 31 32 33 34 35 36 37 38 39 40 41 42 43 44 45 46 47 48 49 50
619
ASUS43 KOAX 192102
RWRNE

WEATHER ROUNDUP FOR NEBRASKA
NATIONAL WEATHER SERVICE OMAHA NE
300 PM CST SUN FEB 19 2017

NOTES: SATELLITE DATA IS BEING USED TO AUGMENT CLOUD COVER ABOVE
       12000 FEET.
       "FAIR" INDICATES FEW OR NO CLOUDS BELOW 12,000 FEET WITH NO
       SIGNIFICANT WEATHER AND/OR OBSTRUCTIONS TO VISIBILITY.

  * THESE STATIONS DO NOT REPORT WEATHER SUCH AS RAIN...SNOW OR FOG.

NEZ001>004-019>022-054>056-192200-
NEBRASKA PANHANDLE

CITY           SKY/WX    TMP DP  RH WIND       PRES   REMARKS
SCOTTSBLUFF    CLOUDY    59  33  37 SE9       29.59F
ALLIANCE       CLOUDY    61  30  31 SE13      29.58F
CHADRON        CLOUDY    67  30  25 S14       29.53F
KIMBALL        CLOUDY    60  30  32 SE14      29.60F
SIDNEY         CLOUDY    64  29  26 S10       29.60F
$$

NEZ057>060-069>072-079>082-192200-
SOUTHWEST NEBRASKA

CITY           SKY/WX    TMP DP  RH WIND       PRES   REMARKS
NORTH PLATTE   MOSUNNY   63  43  48 S9G20     29.67F
IMPERIAL       CLOUDY    66  37  34 SE18      29.63F
LEXINGTON      MOSUNNY   73  42  32 S22G30    29.68S
MCCOOK         MOSUNNY   75  44  33 S22G31    29.65F
OGALLALA       CLOUDY    63  36  37 SE13      29.64F
$$

NEZ005>010-023>029-035>040-094-192200-
NORTH CENTRAL NEBRASKA

CITY           SKY/WX    TMP DP  RH WIND       PRES   REMARKS
VALENTINE      CLOUDY    64  36  35 S20       29.57F
AINSWORTH      MOSUNNY   67  42  39 S20       29.60F
BROKEN BOW     PTSUNNY   69  44  40 S25G35    29.66F
O`NEILL        CLOUDY    71  45  39 S24G31    29.66S
ORD            MOSUNNY   70  41  34 S14G25    29.67F
THEDFORD       CLOUDY    65  40  39 S22       29.64S
$$

NEZ041-046>049-061>064-073>077-083>087-192200-
SOUTH CENTRAL NEBRASKA

CITY           SKY/WX    TMP DP  RH WIND       PRES   REMARKS
GRAND ISLAND   SUNNY     70  47  43 S20G29    29.72F
AURORA         MOSUNNY   69  47  45 S20G25    29.74S
HASTINGS       MOSUNNY   69  47  45 S15G23    29.74F
HEBRON         CLOUDY    66  52  59 S17G24    29.78F
HOLDREGE       CLOUDY    69  41  35 S24G32    29.71S
KEARNEY *      SUNNY     70  43  37 S25       29.71S
YORK           PTSUNNY   68  48  49 S21G29    29.76S
$$

NEZ011>018-030>034-042>045-192200-
NORTHEAST NEBRASKA

CITY           SKY/WX    TMP DP  RH WIND       PRES   REMARKS
NORFOLK        MOSUNNY   67  50  54 S25G39    29.72F
ALBION         CLOUDY    70  47  43 S21G29    29.71F
BLAIR          SUNNY     68  50  51 S21G26    29.80F
FREMONT        SUNNY     69  49  48 S17G24    29.78F
TEKAMAH        MOSUNNY   69  50  50 S18       29.79F
WAYNE          CLOUDY    66  49  53 S24       29.74F
$$

NEZ050>053-065>068-078-088>093-192200-
SOUTHEAST NEBRASKA

CITY           SKY/WX    TMP DP  RH WIND       PRES   REMARKS
LINCOLN        MOSUNNY   73  49  42 S22G32    29.78F
OMAHA EPPLEY   CLOUDY    69  48  47 S18       29.81F
BEATRICE       MOSUNNY   71  54  54 S17G24    29.81S
FALLS CITY     SUNNY     71  52  50 S17G30    29.85F
NEBRASKA CITY  MOSUNNY   71  46  40 S21       29.83F
PLATTSMOUTH    MOSUNNY   71  45  39 S16G24    29.82F
$$

NEZ044-045-051>053-067-192200-
OMAHA AREA

CITY           SKY/WX    TMP DP  RH WIND       PRES   REMARKS
OMAHA EPPLEY   CLOUDY    69  48  47 S18       29.81F
BLAIR          SUNNY     68  50  51 S21G26    29.80F
FREMONT        SUNNY     69  49  48 S17G24    29.78F
MILLARD        MOSUNNY   72  52  49 S14       29.81S
OFFUTT AFB     SUNNY     71  51  50 S17       29.81F
PLATTSMOUTH    MOSUNNY   71  45  39 S16G24    29.82F
WAHOO          FAIR      71  47  42 S22       29.79F
$$




USA.gov is the U.S. government's official web portal to all federal, state and local government web resources and services.